Погода в Кемптене

Германия     47°43′27″N   10°18′47″E
темп.,
°C
ветер,
м/с
пор.,
м/с
влажн.,
%
обл.,
%
осадки,
мм/ч
давл.,
гПа
погр.,
м
17 мая, пн
пн1723:00+6юз31297100 0.4 1007470
02:00+6зюз6139494 2.2 10081023
05:00+5зюз5129768 0.7 1009915
08:00+6зюз6139558 1.0 10111088
11:00+4зюз6119899 1.3 1013889
14:00+6зюз61196100 2.0 10131113
17:00+7зюз5129587 1.3 10141240
20:00+6зюз5129538 2.3 1015985
18 мая, вт
вт1823:00+6зюз6139589 0.1 10161016
02:00+6зюз6139586 0.4 10171157
05:00+5зюз5119599 0.1 10171033
08:00+6зюз3109798 1.8 10171068
11:00+8зюз51090100 0.4 10171216
14:00+8зюз5889100 1.6 1017952
17:00+8зюз5980100 0.9 10171274
20:00+6зюз4109411 2.0 1019619
19 мая, ср
ср1923:00+3юз3109620 0.4 1021339
02:00+4юз4997100 1.2 1021589
05:00+4юз399899 2.7 1022708
08:00+5зюз4893100 3.2 1022867
11:00+5ююз369672 1.5 1022384
14:00+9з357671 2.7 10201104
17:00+10зсз2377100 1.5 1019816
20:00+5ююз4698100 6.3 1021508
20 мая, чт
чт2023:00+4ююз239799 2.3 102277
02:00+4зюз3898100 2.6 1022889
05:00+4зюз4899100 1.5 1024715
08:00+4юз3999100 3.4 1025825
11:00+4юз3799100 2.5 1027795
14:00+5юз3797100 3.0 1027568
17:00+6юз269525 0.3 1027420
20:00+7з258696 0.4 1027263
21 мая, пт
пт2123:00+3ююз22965 0.1 102825
02:00+2ю22925 0.1 102826
05:00+1ююв22905 0.0 102631
08:00+6юв127499 0.0 1023113
11:00+14юз1140100 0.0 1019937
14:00+17з2432100 0.0 10161519
17:00+18з3435100 0.0 10141765
20:00+12ююз116999 0.0 101413